KG5TTF Weather Reports


time (UTC)temp
C
wind
direction
speed
KPH
gust
KPH
rain 1hr
cm
rain 24hr
cm
rain mn
cm
humidity
%
barometer
mb
20260505113021 3 58 0.0 0.0 0.00 0.00 0.00 96 1015.4
20260505112517 4 88 0.0 0.0 0.00 0.00 0.00 96 1015.3
20260505112015 4 38 0.0 0.0 0.00 0.00 0.00 96 1015.4
20260505111514 4 44 0.0 0.0 0.00 0.00 0.00 96 1015.5
20260505111010 4 29 0.0 0.0 0.00 0.00 0.00 96 1015.3
20260505110507 4 37 0.0 0.0 0.00 0.00 0.00 96 1015.2
20260505101933 5 44 0.0 0.0 0.00 0.00 0.00 95 1015.1
20260505101426 5 41 0.0 0.0 0.00 0.00 0.00 95 1015.2
20260505100922 5 40 0.0 0.0 0.00 0.00 0.00 95 1014.9
20260505100419 5 29 0.0 0.0 0.00 0.00 0.00 95 1014.6
20260505095915 5 43 0.0 0.0 0.00 0.00 0.00 94 1014.6
20260505095412 5 60 0.0 0.0 0.00 0.00 0.00 94 1014.4
20260505094908 5 106 0.0 0.0 0.00 0.00 0.00 94 1014.7
20260505094406 5 106 0.0 0.0 0.00 0.00 0.00 94 1014.7
20260505093901 5 106 0.0 0.0 0.00 0.00 0.00 94 1014.6
20260505093359 5 106 0.0 0.0 0.00 0.00 0.00 94 1015.1
20260505092856 5 104 0.0 0.0 0.00 0.00 0.00 94 1014.9
20260505092354 5 103 0.0 0.0 0.00 0.00 0.00 94 1014.9
20260505091851 5 95 0.0 0.0 0.00 0.00 0.00 94 1014.9
20260505091349 5 96 0.0 0.0 0.00 0.00 0.00 94 1014.8
20260505090846 5 96 0.0 0.0 0.00 0.00 0.00 94 1014.8
20260505090345 5 95 0.0 0.0 0.00 0.00 0.00 94 1014.9
20260505085841 5 95 0.0 0.0 0.00 0.00 0.00 94 1014.8
20260505085339 5 95 0.0 0.0 0.00 0.00 0.00 94 1014.8
20260505084837 5 95 0.0 0.0 0.00 0.00 0.00 94 1014.9
20260505084335 5 95 0.0 0.0 0.00 0.00 0.00 94 1014.8
20260505083832 5 95 0.0 0.0 0.00 0.00 0.00 94 1015.1
20260505083329 5 94 0.0 0.0 0.00 0.00 0.00 94 1014.9
20260505082826 6 93 0.0 0.0 0.00 0.00 0.00 94 1015.4
20260505082317 6 171 0.0 0.0 0.00 0.00 0.00 94 1015.2
20260505081814 6 140 0.0 0.0 0.00 0.00 0.00 94 1015.4
20260505081310 5 198 0.0 0.0 0.00 0.00 0.00 94 1015.3
20260505080807 6 115 0.0 0.0 0.00 0.00 0.00 95 1015.5
20260505080303 6 111 0.0 0.0 0.00 0.00 0.00 95 1015.2
20260505075758 6 111 0.0 0.0 0.00 0.00 0.00 94 1015.7
20260505075255 6 111 0.0 0.0 0.00 0.00 0.00 94 1015.4
20260505074753 6 79 0.0 0.0 0.00 0.00 0.00 94 1015.8
20260505074249 6 79 0.0 0.0 0.00 0.00 0.00 94 1015.7
20260505073747 6 79 0.0 0.0 0.00 0.00 0.00 94 1015.5
20260505073245 6 50 0.0 0.0 0.00 0.00 0.00 94 1016.0
20260505072741 6 74 0.0 0.0 0.00 0.00 0.00 94 1015.9
20260505072237 6 87 0.0 0.0 0.00 0.00 0.00 94 1015.9
20260505071733 6 87 0.0 0.0 0.00 0.00 0.00 94 1015.9
20260505071230 6 75 0.0 0.0 0.00 0.00 0.00 94 1016.3
20260505070728 6 91 0.0 0.0 0.00 0.00 0.00 94 1016.0
20260505070224 6 91 0.0 0.0 0.00 0.00 0.00 94 1016.0
20260505065720 6 83 0.0 0.0 0.00 0.00 0.00 94 1016.5
20260505065217 6 83 0.0 0.0 0.00 0.00 0.00 94 1016.4
20260505064714 6 81 0.0 0.0 0.00 0.00 0.00 94 1016.3
20260505064212 6 81 0.0 0.0 0.00 0.00 0.00 94 1016.3
20260505063709 6 75 0.0 0.0 0.00 0.00 0.00 94 1016.4
20260505063205 6 75 0.0 0.0 0.00 0.00 0.00 94 1016.4
20260505062701 6 76 0.0 0.0 0.00 0.00 0.00 94 1016.3
20260505062159 6 66 0.0 0.0 0.00 0.00 0.00 94 1016.0
20260505061656 6 66 0.0 0.0 0.00 0.00 0.00 94 1016.1
20260505061154 6 66 0.0 0.0 0.00 0.00 0.00 94 1016.3
20260505060651 6 64 0.0 0.0 0.00 0.00 0.00 94 1016.3
20260505060148 6 75 0.0 0.0 0.00 0.00 0.00 95 1016.3
20260505055643 6 55 0.0 0.0 0.00 0.36 0.36 95 1016.5
20260505055140 6 26 0.0 0.0 0.18 0.36 0.36 95 1016.5
20260505054637 6 26 0.0 0.0 0.18 0.36 0.36 95 1016.5
20260505054135 6 15 0.0 0.0 0.00 0.33 0.33 95 1016.4
20260505053633 6 14 0.0 0.0 0.13 0.33 0.33 95 1016.8
20260505053129 6 354 0.0 0.0 0.30 0.33 0.33 94 1016.8
20260505052626 6 0 0.0 0.0 0.30 0.30 0.30 94 1016.6
20260505052123 6 339 0.0 0.0 0.13 0.28 0.28 94 1016.6
20260505051620 7 11 0.0 0.0 0.00 0.25 0.25 93 1016.8
20260505051118 7 2 0.0 0.0 0.18 0.25 0.25 93 1016.9
20260505050616 7 5 0.0 0.0 0.18 0.25 0.25 93 1016.6
20260505050114 7 4 0.0 0.0 0.00 0.23 0.23 92 1016.8
20260505041543 7 5 0.0 0.0 0.30 0.13 0.13 82 1016.6
20260505041041 8 357 0.0 0.0 0.30 0.10 0.10 80 1016.8
20260505040538 8 14 0.0 0.0 0.30 0.08 0.08 76 1016.4
20260505040035 8 309 0.0 0.0 0.18 0.05 0.05 74 1016.4
20260505035531 9 303 0.0 0.0 0.00 0.03 0.03 69 1016.4
20260505035028 9 8 0.0 0.0 0.00 0.03 0.03 66 1016.3
20260505034524 9 356 0.0 0.0 0.00 0.03 0.03 62 1016.0
20260505034021 10 335 0.0 0.0 0.00 0.03 0.03 61 1016.1
20260505033518 10 24 0.0 0.0 0.00 0.03 0.03 61 1015.9
20260505033017 10 359 0.0 0.0 0.00 0.03 0.03 60 1015.9
20260505032514 10 23 0.0 0.0 0.00 0.03 0.03 60 1015.5
20260505032010 10 11 0.0 0.0 0.00 0.03 0.03 59 1015.8
20260505031508 10 12 0.0 0.0 0.00 0.03 0.03 59 1016.0
20260505031004 10 45 0.0 0.0 0.00 0.03 0.03 59 1015.8
20260505030501 10 8 0.0 0.0 0.00 0.03 0.03 58 1015.5
20260505025955 10 31 0.0 0.0 0.00 0.03 0.03 59 1015.7
20260505025453 10 347 0.0 0.0 0.00 0.03 0.03 59 1015.4
20260505024952 10 16 0.0 0.0 0.00 0.03 0.03 59 1015.3
20260505024448 10 348 0.0 0.0 0.00 0.03 0.03 59 1015.4
20260505023946 10 0 0.0 0.0 0.00 0.03 0.03 60 1015.3
20260505023443 9 10 0.0 0.0 0.00 0.03 0.03 61 1015.3
20260505022940 9 21 0.0 0.0 0.00 0.03 0.03 62 1015.2
20260505022438 9 34 0.0 0.0 0.00 0.03 0.03 62 1015.4
20260505021935 9 355 0.0 0.0 0.00 0.03 0.03 62 1015.2
20260505021431 9 353 0.0 0.0 0.00 0.03 0.03 62 1014.9
20260505020927 9 10 1.6 4.8 0.00 0.03 0.03 62 1015.2
20260505020422 10 35 0.0 1.6 0.00 0.03 0.03 62 1015.5
20260505015919 10 312 0.0 1.6 0.00 0.03 0.03 60 1015.5
20260505015416 10 27 0.0 1.6 0.00 0.03 0.03 59 1015.2
20260505014914 11 10 0.0 0.0 0.00 0.03 0.03 57 1015.2
20260505014410 11 359 0.0 0.0 0.00 0.03 0.03 54 1014.9
20260505013907 11 353 0.0 1.6 0.00 0.03 0.03 51 1014.9
20260505013404 12 0 0.0 0.0 0.00 0.03 0.03 47 1014.9
20260505012902 12 346 0.0 3.2 0.00 0.03 0.03 46 1014.9
20260505012400 12 350 4.8 11.3 0.00 0.03 0.03 45 1015.1
20260505011856 12 355 0.0 0.0 0.00 0.03 0.03 45 1015.1
20260505011353 12 234 0.0 0.0 0.00 0.03 0.03 45 1014.8
20260505010849 12 336 0.0 0.0 0.00 0.03 0.03 45 1014.7
20260505010345 12 352 0.0 0.0 0.00 0.03 0.03 44 1014.6
20260505005841 12 12 0.0 0.0 0.00 0.03 0.03 43 1014.4
20260505005338 12 341 0.0 0.0 0.00 0.03 0.03 43 1014.6
20260505004836 13 11 0.0 0.0 0.00 0.03 0.03 41 1014.3
20260505004332 13 308 0.0 0.0 0.00 0.03 0.03 39 1014.3
20260505003830 13 32 0.0 1.6 0.00 0.03 0.03 37 1014.3
20260505003326 13 339 0.0 0.0 0.00 0.03 0.03 37 1014.1
20260505002822 13 341 0.0 0.0 0.00 0.03 0.03 37 1014.2
20260505002319 13 17 0.0 1.6 0.00 0.03 0.03 36 1014.2
20260505001818 14 8 1.6 8.0 0.00 0.03 0.03 35 1014.1
20260505001314 14 11 0.0 0.0 0.00 0.03 0.03 35 1014.0
20260505000812 14 330 3.2 8.0 0.00 0.03 0.03 35 1014.0
20260505000310 14 67 0.0 0.0 0.00 0.03 0.03 36 1014.1
20260504235806 14 77 0.0 0.0 0.00 0.03 0.03 35 1014.3
20260504235304 14 21 0.0 0.0 0.00 0.03 0.03 36 1014.2
20260504234759 13 316 0.0 0.0 0.00 0.03 0.03 37 1014.3
20260504234257 13 12 0.0 1.6 0.00 0.03 0.03 37 1014.3
20260504233753 13 344 0.0 0.0 0.00 0.03 0.03 40 1014.3
20260504233249 14 37 0.0 0.0 0.00 0.03 0.03 40 1014.3
20260504232746 14 27 0.0 0.0 0.00 0.03 0.03 35 1014.0
20260504232243 14 39 0.0 0.0 0.00 0.03 0.03 34 1014.2
20260504231740 15 10 3.2 8.0 0.00 0.03 0.03 34 1013.8
20260504231236 15 25 6.4 11.3 0.00 0.03 0.03 34 1013.5
20260504230732 15 347 9.7 16.1 0.00 0.03 0.03 34 1013.2
20260504230231 15 327 6.4 24.1 0.00 0.03 0.03 34 1013.2
20260504225730 15 4 4.8 14.5 0.00 0.03 0.03 34 1013.1
20260504225225 15 346 4.8 9.7 0.00 0.03 0.03 34 1013.0
20260504224723 15 60 3.2 12.9 0.00 0.03 0.03 33 1013.1
20260504224220 16 36 3.2 11.3 0.00 0.03 0.03 31 1012.9
20260504223716 17 61 4.8 9.7 0.00 0.03 0.03 28 1012.9
20260504223211 17 30 4.8 14.5 0.00 0.03 0.03 25 1012.9
20260504222709 17 36 0.0 0.0 0.00 0.03 0.03 24 1013.0
20260504222205 17 333 6.4 11.3 0.00 0.03 0.03 24 1012.7
20260504221703 17 6 0.0 0.0 0.00 0.03 0.03 25 1012.7
20260504221200 17 78 0.0 3.2 0.00 0.03 0.03 25 1012.7
20260504220656 17 43 0.0 0.0 0.00 0.03 0.03 25 1012.7
20260504220154 17 18 3.2 8.0 0.00 0.03 0.03 24 1012.5
20260504215650 17 43 0.0 0.0 0.00 0.03 0.03 24 1012.6
20260504215148 18 17 0.0 0.0 0.00 0.03 0.03 23 1012.6
20260504214643 18 11 0.0 1.6 0.00 0.03 0.03 24 1012.6
20260504214140 18 349 0.0 0.0 0.00 0.03 0.03 24 1012.7
20260504213636 18 256 0.0 0.0 0.00 0.03 0.03 23 1012.7
20260504213133 19 20 0.0 0.0 0.00 0.03 0.03 22 1012.7
20260504212630 20 9 0.0 0.0 0.00 0.03 0.03 23 1012.9
20260504212126 19 6 0.0 0.0 0.00 0.03 0.03 22 1012.6
20260504211624 18 13 0.0 0.0 0.00 0.03 0.03 22 1012.9
20260504211120 19 287 0.0 0.0 0.00 0.03 0.03 23 1013.1
20260504210619 20 10 0.0 0.0 0.00 0.03 0.03 21 1013.0
20260504210114 20 62 0.0 0.0 0.00 0.03 0.03 21 1013.0
20260504205612 20 306 0.0 0.0 0.00 0.03 0.03 21 1012.9
20260504205110 20 62 0.0 0.0 0.00 0.03 0.03 21 1013.1
20260504204608 20 64 0.0 0.0 0.00 0.03 0.03 23 1013.1
20260504204106 19 48 0.0 0.0 0.00 0.03 0.03 24 1013.1
20260504203604 19 48 0.0 1.6 0.00 0.03 0.03 23 1013.3
20260504203102 19 43 0.0 0.0 0.00 0.03 0.03 23 1013.3
20260504202556 20 25 0.0 0.0 0.00 0.03 0.03 25 1013.7
20260504202054 19 221 0.0 0.0 0.00 0.03 0.03 24 1013.7
20260504201550 19 35 0.0 0.0 0.00 0.03 0.03 25 1013.5
20260504201049 18 77 0.0 0.0 0.00 0.03 0.03 25 1013.5
20260504200544 18 53 3.2 12.9 0.00 0.03 0.03 26 1013.6
20260504200042 17 68 0.0 0.0 0.00 0.03 0.03 27 1013.6
20260504195537 17 342 4.8 11.3 0.00 0.03 0.03 27 1013.6
20260504195034 17 334 8.0 16.1 0.00 0.03 0.03 28 1013.2
20260504194531 17 356 4.8 11.3 0.00 0.03 0.03 29 1013.2
20260504194026 17 356 3.2 8.0 0.00 0.03 0.03 30 1013.1
20260504193523 16 2 0.0 0.0 0.00 0.03 0.03 34 1013.0
20260504193022 16 336 0.0 1.6 0.18 0.03 0.03 36 1013.2
20260504192520 16 46 0.0 1.6 0.18 0.03 0.03 35 1013.6
20260504192018 15 293 1.6 3.2 0.00 0.00 0.00 38 1013.5
20260504191515 16 350 0.0 1.6 0.00 0.00 0.00 42 1013.6
20260504191011 17 354 3.2 9.7 0.00 0.00 0.00 27 1013.2
20260504190507 18 348 4.8 11.3 0.00 0.00 0.00 22 1013.3
20260504190003 18 4 0.0 1.6 0.00 0.00 0.00 20 1013.2
20260504185501 19 3 0.0 0.0 0.00 0.00 0.00 20 1013.5
20260504184957 20 17 0.0 0.0 0.00 0.00 0.00 20 1013.5
20260504184453 20 5 0.0 0.0 0.00 0.00 0.00 19 1013.2
20260504183948 21 36 0.0 0.0 0.00 0.00 0.00 18 1013.2
20260504183446 20 79 0.0 0.0 0.00 0.00 0.00 20 1013.3
20260504182944 20 80 0.0 0.0 0.00 0.00 0.00 19 1013.3
20260504182440 21 187 0.0 0.0 0.00 0.00 0.00 18 1013.6
20260504181938 20 3 0.0 0.0 0.00 0.00 0.00 20 1013.6
20260504181435 19 278 0.0 0.0 0.00 0.00 0.00 21 1013.6
20260504180933 20 23 0.0 0.0 0.00 0.00 0.00 20 1013.8
20260504180432 20 183 0.0 0.0 0.00 0.00 0.00 19 1013.8
20260504175930 20 26 0.0 0.0 0.00 0.00 0.00 19 1013.8
20260504175426 20 200 0.0 0.0 0.00 0.00 0.00 20 1014.1
20260504174924 20 270 0.0 0.0 0.00 0.00 0.00 19 1014.1
20260504174422 20 13 0.0 0.0 0.00 0.00 0.00 20 1014.3
20260504173919 20 22 0.0 0.0 0.00 0.00 0.00 20 1014.3
20260504173415 20 78 0.0 0.0 0.00 0.00 0.00 21 1014.4
20260504172913 20 17 0.0 0.0 0.00 0.00 0.00 20 1014.4
20260504172408 19 0 0.0 0.0 0.00 0.00 0.00 21 1014.7
20260504171905 18 336 0.0 0.0 0.00 0.00 0.00 21 1014.6
20260504171402 19 176 0.0 1.6 0.00 0.00 0.00 21 1014.6
20260504170859 18 327 0.0 0.0 0.00 0.00 0.00 21 1014.6
20260504170355 18 44 0.0 1.6 0.00 0.00 0.00 21 1014.6
20260504160314 18 12 1.6 3.2 0.00 0.00 0.00 23 1015.1
20260504150739 15 249 1.6 3.2 0.00 0.00 0.00 26 1015.4
20260504150236 15 352 0.0 1.6 0.00 0.00 0.00 25 1015.3
20260504141205 13 306 0.0 0.0 0.00 0.00 0.00 30 1015.2
20260504140702 13 338 0.0 0.0 0.00 0.00 0.00 31 1015.1
20260504140158 13 336 0.0 0.0 0.00 0.00 0.00 32 1015.2
20260504130626 10 66 0.0 0.0 0.00 0.00 0.00 36 1015.2
20260504130123 10 20 0.0 0.0 0.00 0.00 0.00 36 1015.1